FW3274 Weather Reports


Display with metric or nautical units.
time (UTC)temp
F
wind
direction
speed
MPH
gust
MPH
rain 1hr
in
rain 24hr
in
rain mn
in
humidity
%
barometer
mb
20260902101606 88 99 0.0 2.0 0.00 0.00 0.00 41 1013.2
20260902100110 87 64 0.0 4.0 0.00 0.00 0.00 42 1013.3
20260902094555 86 58 0.0 4.0 0.00 0.00 0.00 45 1013.4
20260902093053 86 74 0.0 5.0 0.00 0.00 0.00 43 1013.5
20260902091555 85 69 0.0 2.0 0.00 0.00 0.00 43 1013.5
20260902090053 85 60 0.0 2.0 0.00 0.00 0.00 44 1013.6
20260902084600 85 113 0.0 4.0 0.00 0.00 0.00 44 1013.5
20260902083049 85 67 0.0 3.0 0.00 0.00 0.00 46 1013.5
20260902081556 84 89 0.0 1.0 0.00 0.00 0.00 44 1013.5
20260902080044 83 92 0.0 4.0 0.00 0.00 0.00 45 1013.4
20260902074540 83 101 0.0 0.0 0.00 0.00 0.00 50 1013.3
20260902073049 82 305 0.0 1.0 0.00 0.00 0.00 52 1013.1
20260902071535 80 298 0.0 0.0 0.00 0.00 0.00 54 1013.1
20260902070031 79 284 0.0 1.0 0.00 0.00 0.00 55 1013.0
20260902064527 78 298 0.0 0.0 0.00 0.00 0.00 57 1013.0
20260902063024 76 307 0.0 3.0 0.00 0.00 0.00 61 1012.9
20260902061522 75 316 0.0 2.0 0.00 0.00 0.00 61 1012.9
20260902060018 74 337 0.0 1.0 0.00 0.00 0.00 64 1012.8
20260902054518 72 311 0.0 0.0 0.00 0.00 0.00 67 1012.8
20260902053017 70 317 0.0 0.0 0.00 0.00 0.00 69 1012.7
20260902051518 70 317 0.0 0.0 0.00 0.00 0.00 69 1012.5
20260902050016 70 317 0.0 0.0 0.00 0.00 0.00 70 1012.6
20260902044517 69 318 0.0 0.0 0.00 0.00 0.00 70 1012.6
20260902043014 69 318 0.0 0.0 0.00 0.00 0.00 70 1012.7
20260902041514 70 318 0.0 0.0 0.00 0.00 0.00 70 1012.5
20260902040009 71 318 0.0 0.0 0.00 0.00 0.00 68 1012.5
20260902034509 71 318 0.0 0.0 0.00 0.00 0.00 67 1012.4
20260902033009 71 318 0.0 0.0 0.00 0.00 0.00 67 1012.5
20260902031509 71 317 0.0 0.0 0.00 0.00 0.00 67 1012.4
20260902030010 71 312 0.0 0.0 0.00 0.00 0.00 67 1012.5
20260902024506 72 309 0.0 0.0 0.00 0.00 0.00 67 1012.6
20260902023009 71 313 0.0 0.0 0.00 0.00 0.00 67 1012.5
20260902021506 71 316 0.0 0.0 0.00 0.00 0.00 67 1012.4
20260902020005 71 317 0.0 0.0 0.00 0.00 0.00 68 1012.5
20260902014517 71 15 0.0 0.0 0.00 0.00 0.00 69 1012.5
20260902013004 71 86 0.0 0.0 0.00 0.00 0.00 69 1012.5
20260902011502 72 88 0.0 0.0 0.00 0.00 0.00 68 1012.4
20260902010106 72 88 0.0 0.0 0.00 0.00 0.00 67 1012.6
20260902004558 73 19 0.0 0.0 0.00 0.00 0.00 66 1012.6
20260902003056 73 19 0.0 0.0 0.00 0.00 0.00 65 1012.6
20260902001610 73 19 0.0 0.0 0.00 0.00 0.00 65 1012.8
20260902000054 73 19 0.0 0.0 0.00 0.00 0.00 65 1012.9
20260901234553 73 30 0.0 0.0 0.00 0.00 0.00 65 1012.9
20260901233056 74 30 0.0 0.0 0.00 0.00 0.00 64 1012.8
20260901231549 74 30 0.0 0.0 0.00 0.00 0.00 63 1012.7
20260901230047 74 30 0.0 0.0 0.00 0.00 0.00 63 1012.7
20260901224552 74 59 0.0 0.0 0.00 0.00 0.00 63 1012.6
20260901223045 74 59 0.0 0.0 0.00 0.00 0.00 63 1012.6
20260901221553 74 63 0.0 0.0 0.00 0.00 0.00 63 1012.6
20260901220041 74 67 0.0 0.0 0.00 0.00 0.00 63 1012.6
20260901214554 74 67 0.0 0.0 0.00 0.00 0.00 63 1012.5
20260901213038 74 67 0.0 0.0 0.00 0.00 0.00 63 1012.5
20260901211539 75 67 0.0 0.0 0.00 0.00 0.00 63 1012.5
20260901210038 75 67 0.0 0.0 0.00 0.00 0.00 62 1012.4
20260901204539 75 67 0.0 0.0 0.00 0.00 0.00 61 1012.5
20260901203037 76 67 0.0 0.0 0.00 0.00 0.00 61 1012.5
20260901201536 76 67 0.0 0.0 0.00 0.00 0.00 60 1012.5
20260901200036 76 67 0.0 0.0 0.00 0.00 0.00 60 1012.3
20260901194540 76 67 0.0 0.0 0.00 0.00 0.00 59 1012.3
20260901193036 76 67 0.0 0.0 0.00 0.00 0.00 59 1012.2
20260901191547 77 67 0.0 0.0 0.00 0.00 0.00 59 1012.0
20260901190043 78 67 0.0 0.0 0.00 0.00 0.00 58 1011.9
20260901184534 78 67 0.0 0.0 0.00 0.00 0.00 56 1011.7
20260901183057 79 67 0.0 0.0 0.00 0.00 0.00 55 1011.8
20260901181533 80 67 0.0 0.0 0.00 0.00 0.00 54 1011.6
20260901180033 80 67 0.0 0.0 0.00 0.00 0.00 53 1011.4
20260901174533 81 67 0.0 0.0 0.00 0.00 0.00 53 1011.3
20260901173038 82 67 0.0 0.0 0.00 0.00 0.00 51 1011.2
20260901171532 83 67 0.0 0.0 0.00 0.00 0.00 48 1011.3
20260901170031 84 67 0.0 0.0 0.00 0.00 0.00 47 1011.4
20260901164531 85 75 0.0 0.0 0.00 0.00 0.00 45 1011.3
20260901163030 86 77 0.0 1.0 0.00 0.00 0.00 44 1011.5
20260901161530 87 65 0.0 0.0 0.00 0.00 0.00 43 1011.5
20260901160035 86 68 0.0 1.0 0.00 0.00 0.00 44 1011.6
20260901154537 87 92 0.0 2.0 0.00 0.00 0.00 43 1011.7
20260901153039 87 81 0.0 1.0 0.00 0.00 0.00 42 1011.7
20260901151527 87 80 0.0 3.0 0.00 0.00 0.00 43 1011.7
20260901150026 87 94 0.0 2.0 0.00 0.00 0.00 44 1011.8
20260901144533 87 79 0.0 3.0 0.00 0.00 0.00 42 1011.9
20260901143025 87 78 0.0 4.0 0.00 0.00 0.00 43 1012.1
20260901141525 88 80 0.0 3.0 0.00 0.00 0.00 43 1012.0
20260901140024 87 67 0.0 3.0 0.00 0.00 0.00 43 1012.2
20260901134524 87 74 0.0 2.0 0.00 0.00 0.00 45 1012.3
20260901133024 88 96 1.0 6.0 0.00 0.00 0.00 42 1012.3
20260901131522 87 55 0.0 2.0 0.00 0.00 0.00 43 1012.4
20260901130019 87 101 0.0 4.0 0.00 0.00 0.00 45 1012.6
20260901124535 86 53 1.0 6.0 0.00 0.00 0.00 45 1012.7
20260901123019 86 71 0.0 4.0 0.00 0.00 0.00 45 1012.9
20260901121517 86 26 0.0 5.0 0.00 0.00 0.00 46 1012.8
20260901120016 86 74 0.0 6.0 0.00 0.00 0.00 46 1012.9
20260901114515 86 82 0.0 4.0 0.00 0.00 0.00 48 1013.0
20260901113015 86 82 0.0 4.0 0.00 0.00 0.00 48 1013.1
20260901111515 86 76 0.0 4.0 0.00 0.00 0.00 46 1013.2
20260901110012 85 84 0.0 6.0 0.00 0.00 0.00 47 1013.2
20260901104512 85 87 0.0 4.0 0.00 0.00 0.00 46 1013.3
20260901103010 84 94 0.0 7.0 0.00 0.00 0.00 47 1013.4